Location: Astronomy Club of Akron Observatory
(40.9700°N, 81.5606°W)
Time: 17:25:44
(UTC-04:00)

N. Korean satellite - Pass Details

Date: 22 February 2019
Orbit: 455 x 511 km, 97.2° (Epoch: 18 March)

Event Time Altitude Azimuth Distance (km) Brightness Sun altitude
Rises 18:45:44 0° 204° (SSW) 2,584 10.7 -7.7°
Reaches altitude 10° 18:48:24 10° 225° (SW) 1,697 10.2 -8.2°
Maximum altitude 18:50:49 17° 266° (W) 1,324 10.2 -8.6°
Drops below altitude 10° 18:53:14 10° 308° (NW) 1,687 10.0 -9.1°
Sets 18:55:53 0° 330° (NNW) 2,561 10.6 -9.6°
